• In Russia
  • List of Countries
  • For 7 days
  • Water Temperature
  • Weather Map
  • Weather Widgets
  • user-avatar
    Login

    Hourly Weather Andora

    Today, 12 December, Thursday

    Time Temperature Precipitation Wind Pressure Humidity
    00:00 -4°C° 0.7 mm 2 mps 619 mmHg 93%
    01:00 -4°C° 0.8 mm 2 mps 619 mmHg 94%
    02:00 -4°C° 0.8 mm 2 mps 619 mmHg 95%
    03:00 -4°C° 0.8 mm 2 mps 618 mmHg 96%
    04:00 -4°C° 0.6 mm 2 mps 618 mmHg 96%
    05:00 -2°C° 0.6 mm 1 mps 618 mmHg 95%
    06:00 -1°C° 0.6 mm 1 mps 618 mmHg 95%
    07:00 -1°C° 0.2 mm 1 mps 618 mmHg 92%
    08:00 0°C° 0.2 mm 1 mps 618 mmHg 90%
    09:00 0°C° 0.2 mm 1 mps 618 mmHg 87%
    10:00 +1°C° 0.1 mm 1 mps 618 mmHg 84%
    11:00 +2°C° 0.1 mm 1 mps 618 mmHg 81%
    12:00 +3°C° 0.1 mm 1 mps 618 mmHg 78%
    13:00 +3°C° 0.1 mm 1 mps 617 mmHg 81%
    14:00 +2°C° 0.1 mm 1 mps 616 mmHg 85%
    15:00 +1°C° 0.1 mm 2 mps 615 mmHg 88%
    16:00 -1°C° 0.4 mm 2 mps 614 mmHg 91%
    17:00 -1°C° 0.4 mm 2 mps 614 mmHg 93%
    18:00 -2°C° 0.4 mm 2 mps 613 mmHg 96%
    19:00 -2°C° 2 mm 2 mps 612 mmHg 96%
    20:00 -2°C° 2 mm 2 mps 612 mmHg 97%
    21:00 -2°C° 2 mm 2 mps 612 mmHg 97%
    22:00 0°C° 2.4 mm 1 mps 612 mmHg 98%
    23:00 +1°C° 2.4 mm 1 mps 612 mmHg 98%

    Tomorrow, 13 December, Friday

    Time Temperature Precipitation Wind Pressure Humidity
    00:00 +1°C° 2.4 mm 1 mps 612 mmHg 98%
    01:00 +1°C° 1.9 mm 1 mps 611 mmHg 98%
    02:00 +1°C° 1.9 mm 1 mps 611 mmHg 98%
    03:00 +1°C° 1.9 mm 1 mps 611 mmHg 98%
    04:00 +1°C° 1.8 mm 1 mps 610 mmHg 98%
    05:00 +2°C° 1.8 mm 1 mps 610 mmHg 98%
    06:00 +2°C° 1.8 mm 1 mps 610 mmHg 99%
    07:00 +2°C° 2.8 mm 1 mps 611 mmHg 98%
    08:00 +2°C° 2.8 mm 1 mps 611 mmHg 98%
    09:00 +2°C° 2.8 mm 2 mps 611 mmHg 98%
    10:00 +2°C° 3.1 mm 2 mps 612 mmHg 98%
    11:00 +2°C° 3.1 mm 2 mps 612 mmHg 97%
    12:00 +1°C° 3.1 mm 3 mps 612 mmHg 97%
    13:00 +1°C° 1.5 mm 3 mps 612 mmHg 97%
    14:00 +1°C° 1.5 mm 3 mps 613 mmHg 97%
    15:00 +1°C° 1.5 mm 3 mps 613 mmHg 97%
    16:00 +1°C° 2.7 mm 3 mps 613 mmHg 97%
    17:00 +1°C° 2.7 mm 2 mps 614 mmHg 98%
    18:00 +1°C° 2.7 mm 2 mps 614 mmHg 99%
    19:00 +1°C° 2.3 mm 2 mps 615 mmHg 99%
    20:00 +2°C° 2.3 mm 2 mps 615 mmHg 99%
    21:00 +2°C° 2.3 mm 2 mps 616 mmHg 99%
    22:00 +2°C° 1.3 mm 2 mps 616 mmHg 98%
    23:00 +2°C° 1.3 mm 2 mps 617 mmHg 98%

    Day after tomorrow, 14 December, Saturday

    Time Temperature Precipitation Wind Pressure Humidity
    00:00 +2°C° 1.3 mm 2 mps 617 mmHg 98%
    01:00 +2°C° 0 mm 2 mps 617 mmHg 98%
    02:00 +2°C° 0 mm 2 mps 617 mmHg 97%
    03:00 0°C° 0 mm 3 mps 617 mmHg 97%
    04:00 0°C° 0 mm 3 mps 618 mmHg 96%
    05:00 0°C° 0 mm 3 mps 618 mmHg 95%
    06:00 -1°C° 0 mm 3 mps 618 mmHg 93%
    07:00 +1°C° 0 mm 2 mps 619 mmHg 92%
    08:00 +1°C° 0 mm 2 mps 619 mmHg 91%
    09:00 +1°C° 0 mm 2 mps 620 mmHg 90%
    10:00 +3°C° 0 mm 1 mps 620 mmHg 90%
    11:00 +4°C° 0 mm 1 mps 620 mmHg 90%
    12:00 +4°C° 0 mm 0 mps 621 mmHg 89%
    13:00 +3°C° 0 mm 0 mps 620 mmHg 91%
    14:00 +4°C° 0 mm 1 mps 620 mmHg 92%
    15:00 +4°C° 0 mm 1 mps 620 mmHg 93%
    16:00 +3°C° 0 mm 1 mps 619 mmHg 92%
    17:00 +1°C° 0 mm 1 mps 619 mmHg 91%
    18:00 0°C° 0 mm 1 mps 619 mmHg 90%
    19:00 0°C° 0 mm 1 mps 619 mmHg 88%
    20:00 0°C° 0 mm 1 mps 619 mmHg 85%
    21:00 0°C° 0 mm 1 mps 619 mmHg 83%
    22:00 0°C° 0 mm 1 mps 619 mmHg 83%
    23:00 -1°C° 0 mm 1 mps 619 mmHg 83%

    15 December, Sunday

    Time Temperature Precipitation Wind Pressure Humidity
    00:00 -1°C° 0 mm 1 mps 619 mmHg 83%
    01:00 -1°C° 0 mm 1 mps 619 mmHg 82%
    02:00 -1°C° 0 mm 1 mps 619 mmHg 81%
    03:00 -1°C° 0 mm 1 mps 618 mmHg 79%
    04:00 -1°C° 0 mm 1 mps 618 mmHg 78%
    05:00 -1°C° 0 mm 1 mps 619 mmHg 76%
    06:00 -1°C° 0 mm 1 mps 619 mmHg 74%
    07:00 0°C° 0 mm 1 mps 619 mmHg 75%
    08:00 +1°C° 0 mm 1 mps 620 mmHg 76%
    09:00 +2°C° 0 mm 1 mps 621 mmHg 77%
    10:00 +3°C° 0 mm 1 mps 621 mmHg 80%
    11:00 +4°C° 0 mm 1 mps 621 mmHg 83%
    12:00 +5°C° 0 mm 1 mps 621 mmHg 85%
    13:00 +5°C° 0 mm 1 mps 621 mmHg 87%
    14:00 +4°C° 0 mm 2 mps 620 mmHg 88%
    15:00 +3°C° 0 mm 2 mps 620 mmHg 90%
    16:00 +2°C° 0 mm 2 mps 620 mmHg 90%
    17:00 +1°C° 0 mm 2 mps 619 mmHg 91%
    18:00 +1°C° 0 mm 2 mps 619 mmHg 92%
    19:00 +1°C° 0 mm 2 mps 619 mmHg 90%
    20:00 -1°C° 0 mm 2 mps 619 mmHg 88%
    21:00 -1°C° 0 mm 2 mps 619 mmHg 86%
    22:00 -1°C° 0 mm 2 mps 619 mmHg 84%
    23:00 -1°C° 0 mm 2 mps 618 mmHg 83%

    16 December, Monday

    Time Temperature Precipitation Wind Pressure Humidity
    00:00 -1°C° 0 mm 2 mps 618 mmHg 81%
    01:00 -1°C° 0 mm 2 mps 618 mmHg 79%
    02:00 -2°C° 0 mm 2 mps 617 mmHg 77%
    03:00 -2°C° 0 mm 2 mps 617 mmHg 75%
    04:00 -2°C° 0 mm 2 mps 617 mmHg 75%
    05:00 -2°C° 0 mm 2 mps 616 mmHg 75%
    06:00 -2°C° 0 mm 2 mps 616 mmHg 74%
    07:00 -2°C° 0 mm 2 mps 616 mmHg 76%
    08:00 -1°C° 0 mm 3 mps 617 mmHg 77%
    09:00 0°C° 0 mm 3 mps 617 mmHg 79%
    10:00 +1°C° 0 mm 3 mps 617 mmHg 80%
    11:00 +2°C° 0 mm 3 mps 617 mmHg 82%
    12:00 +1°C° 0 mm 4 mps 617 mmHg 83%
    13:00 +1°C° 0 mm 4 mps 616 mmHg 86%
    14:00 +2°C° 0 mm 3 mps 616 mmHg 89%
    15:00 +2°C° 0 mm 3 mps 616 mmHg 91%
    16:00 +2°C° 0 mm 3 mps 615 mmHg 92%
    17:00 +1°C° 0 mm 3 mps 615 mmHg 93%
    18:00 +1°C° 0 mm 3 mps 615 mmHg 93%
    19:00 +1°C° 0 mm 3 mps 615 mmHg 93%
    20:00 +1°C° 0 mm 3 mps 615 mmHg 92%
    21:00 +2°C° 0 mm 2 mps 614 mmHg 92%
    22:00 +2°C° 0 mm 2 mps 614 mmHg 92%
    23:00 +2°C° 0 mm 2 mps 614 mmHg 92%

    17 December, Tuesday

    Time Temperature Precipitation Wind Pressure Humidity
    00:00 +2°C° 0 mm 2 mps 614 mmHg 91%
    01:00 +1°C° 0 mm 2 mps 614 mmHg 90%
    02:00 +1°C° 0 mm 2 mps 613 mmHg 90%
    03:00 -1°C° 0 mm 2 mps 613 mmHg 89%
    04:00 -1°C° 0.1 mm 2 mps 613 mmHg 89%
    05:00 -1°C° 0.1 mm 2 mps 614 mmHg 89%
    06:00 +1°C° 0.1 mm 2 mps 614 mmHg 89%
    07:00 +2°C° 0 mm 1 mps 615 mmHg 88%
    08:00 +3°C° 0 mm 1 mps 615 mmHg 86%
    09:00 +3°C° 0 mm 1 mps 616 mmHg 84%
    10:00 +4°C° 0 mm 1 mps 616 mmHg 85%
    11:00 +5°C° 0 mm 1 mps 617 mmHg 85%
    12:00 +5°C° 0 mm 1 mps 617 mmHg 85%
    13:00 +5°C° 0.1 mm 1 mps 617 mmHg 88%
    14:00 +4°C° 0.1 mm 1 mps 617 mmHg 90%
    15:00 +4°C° 0.1 mm 1 mps 618 mmHg 93%
    16:00 +3°C° 0.2 mm 1 mps 618 mmHg 94%
    17:00 +3°C° 0.2 mm 1 mps 619 mmHg 96%
    18:00 +3°C° 0.2 mm 1 mps 619 mmHg 97%
    19:00 +2°C° 0.1 mm 1 mps 620 mmHg 97%
    20:00 +2°C° 0.1 mm 1 mps 620 mmHg 97%
    21:00 +2°C° 0.1 mm 1 mps 621 mmHg 96%
    22:00 +2°C° 0 mm 1 mps 621 mmHg 96%
    23:00 +1°C° 0 mm 0 mps 622 mmHg 96%
    Show more